Location: Newark
(47.3150°N, 5.1150°E)
Time: 06:35:44
(UTC+00:00)

O/OREOS (USA 219) - Pass Details

Date: 17 December 2019
Orbit: 621 x 646 km, 72.0° (Epoch: 22 May)

Event Time Altitude Azimuth Distance (km) Brightness Sun altitude
Exits shadow 06:34:44 - 314° (NW) 2,189 ? -7.6°
Reaches altitude 10° 06:35:10 10° 311° (NW) 2,044 ? -7.5°
Maximum altitude 06:38:54 25° 257° (WSW) 1,296 ? -7.0°
Drops below altitude 10° 06:42:35 10° 202° (SSW) 2,019 ? -6.4°
Sets 06:45:08 0° 189° (S) 2,917 ? -6.0°
